YAOGAN-36 01A (53943 NORAD) Tracking and Keplerian Element Data

This shows tracking and keplerian element data for the satellite.

Feedback or suggestion? Click here.




ElementValue
Catalog53943
NameYAOGAN-36 01A
Epoch Orbit848
Epoch Day325.13813615
Epoch Year2022
RAAN195.6116
Inclination34.9976
Eccentricity0.0002242
Argument of Perigee48.0956
Mean Anonmoly90.3179
Mean Motion15.23058032
Decay Rate7.645E-05
L11 53943U 22120A 22325.13813615 .00007645 00000+0 31801-3 0 9990
L22 53943 34.9976 195.6116 0002242 48.0956 90.3179 15.23058032 8483



Live tracking and technical data element details for YAOGAN-36 01A (NORAD 53943). YAOGAN-36 01A can be tracked NOW for your location showing map with azimuth and elevation plus other details from your city location.







IsCatalogInMostPopularTable: catalog: 53943, numindb: 2
Update: records affected: 1



GetName: 53943 YAOGAN-36 01A

Hit Count: updated at: Thu, 08 Dec 2022 09:48:28 GMT